(322474) = 1995 SE87 = 2011 UF192

Discovered at Kitt Peak on 1995-09-25 by Spacewatch.

Orbit

Orbit type: Main Belt

Note: WebGL enabled browser required.

epoch2024-03-31.0
epoch JD2460400.5
perihelion date2021-05-20.65498
perihelion JD2459355.15498
argument of perihelion (°)355.90750
ascending node (°)331.38908
inclination (°)1.12116
eccentricity0.1945627
perihelion distance (AU)2.4029294
Tisserand w.r.t. Jupiter3.2
ΔV w.r.t. Earth (km/sec)9.8
semimajor axis (AU)2.9833847
mean anomaly (°)199.93996
mean daily motion (°/day)0.19126700
aphelion distance (AU)3.564
period (years)5.15
P-vector [x]0.84148516
P-vector [y]-0.49514030
P-vector [z]-0.21619159
Q-vector [x]0.54019897
Q-vector [y]0.76412442
Q-vector [z]0.35256055
absolute magnitude16.7
phase slope0.15
uncertainty0
referenceMPEC 2024-E179
observations used327
oppositions17
arc length (days)10389
first opposition used1995
last opposition used2024
residual rms (arc-secs)0.80
perturbers coarse indicatorM-v
perturbers precise indicator003Ek
first observation date used1995-09-25.0
last observation date used2024-03-05.0
computer nameMPCLINUX
JD of orbit computation2456731.630298
perihelion JD uncertainty (days)1.4215E-04
argument of perihelion uncertainty (°)3.1118E-04
ascending node uncertainty (°)3.1055E-04
inclination uncertainty (°)5.1058E-06
eccentricity uncertainty 7.9987E-08
perihelion distance uncertainty (AU)2.3021E-07
Minimum Orbit Intersection Distances (in AU)
for orbit epoch: 2460400.5, reference: E2024-FB1
Mercury1.99252
Venus1.67643
Earth1.39125
Mars1.02071
Jupiter1.7744
Saturn5.62181
Uranus14.8933
Neptune26.7204

Observations

330 total observations over interval: 1995 09 25.23914 – 2024 03 05.261345
These data are available for download (format description).

Date (UT) J2000 RA J2000 Dec Magn Location Ref
1995 09 25.23914 22 26 00.44 -09 21 22.9 20.2 V 691 – Steward Observatory, Kitt Peak-Spacewatch MPS 32150
1995 09 25.26008 22 25 59.80 -09 21 25.8 20.4 V 691 – Steward Observatory, Kitt Peak-Spacewatch MPS 32150
1995 09 25.28120 22 25 59.10 -09 21 28.9 20.6 V 691 – Steward Observatory, Kitt Peak-Spacewatch MPS 32150
1995 10 01.29988 22 23 28.78 -09 33 23.2 21.2 V 691 – Steward Observatory, Kitt Peak-Spacewatch MPS 32150
1995 10 01.32225 22 23 28.29 -09 33 25.2 20.5 V 691 – Steward Observatory, Kitt Peak-Spacewatch MPS 32150
1995 10 01.34412 22 23 27.82 -09 33 27.2 20.8 V 691 – Steward Observatory, Kitt Peak-Spacewatch MPS 32150
2001 11 17.39331 04 55 27.78 +24 15 30.1 22.0 V 291 – LPL/Spacewatch II MPS 401256
2001 11 17.41532 04 55 26.61 +24 15 29.0 21.5 V 291 – LPL/Spacewatch II MPS 401256
2001 11 17.43741 04 55 25.51 +24 15 26.6 22.1 V 291 – LPL/Spacewatch II MPS 401256
2004 03 27.26717 12 58 31.31 -07 23 55.9 21.9 V 291 – LPL/Spacewatch II MPS 401256
2004 03 27.29036 12 58 30.15 -07 23 49.4 21.7 V 291 – LPL/Spacewatch II MPS 401256
2004 03 27.31386 12 58 29.14 -07 23 44.3 22.6 V 291 – LPL/Spacewatch II MPS 401256
2005 06 14.46100 19 33 20.64 -23 06 51.2 20.4 r 568 – Maunakea MPS 401256
2005 06 14.48545 19 33 19.82 -23 06 53.1 20.3 r 568 – Maunakea MPS 401256
2005 06 14.50985 19 33 19.00 -23 06 54.8 20.3 r 568 – Maunakea MPS 401256
2006 10 31.30995 03 52 25.28 +21 54 30.2 20.5 V G96 – Mt. Lemmon Survey MPS 401256
2006 10 31.31708 03 52 24.88 +21 54 29.5 20.3 V G96 – Mt. Lemmon Survey MPS 401256
2006 10 31.32428 03 52 24.56 +21 54 28.7 21.3 V G96 – Mt. Lemmon Survey MPS 401256
2006 10 31.33163 03 52 24.16 +21 54 27.6 20.6 V G96 – Mt. Lemmon Survey MPS 401256
2006 12 12.07688 03 17 30.28 +19 54 23.4 21.3 V 691 – Steward Observatory, Kitt Peak-Spacewatch MPS 401256
2006 12 12.09487 03 17 29.61 +19 54 20.1 21.0 V 691 – Steward Observatory, Kitt Peak-Spacewatch MPS 401256
2006 12 12.11286 03 17 28.74 +19 54 18.3 21.7 V 691 – Steward Observatory, Kitt Peak-Spacewatch MPS 401256
2008 01 30.27448 08 36 55.54 +19 13 47.0 21.9 V G96 – Mt. Lemmon Survey MPS 401256
2008 01 30.28197 08 36 55.08 +19 13 48.1 21.3 V G96 – Mt. Lemmon Survey MPS 401256
2008 01 30.28948 08 36 54.68 +19 13 49.3 21.1 V G96 – Mt. Lemmon Survey MPS 401256
2008 01 30.29690 08 36 54.32 +19 13 50.6 21.4 V G96 – Mt. Lemmon Survey MPS 401256
2009 03 18.32710 12 18 38.59 -02 54 49.1 21.3 V G96 – Mt. Lemmon Survey MPS 401256
2009 03 18.33041 12 18 38.44 -02 54 48.2 21.4 V G96 – Mt. Lemmon Survey MPS 401256
2009 03 18.33372 12 18 38.26 -02 54 47.3 21.2 V G96 – Mt. Lemmon Survey MPS 401256
2009 03 19.34351 12 17 53.01 -02 50 10.2 21.9 V G96 – Mt. Lemmon Survey MPS 401256
2009 03 19.35116 12 17 52.65 -02 50 08.9 21.1 V G96 – Mt. Lemmon Survey MPS 401256
2009 03 19.35880 12 17 52.26 -02 50 06.5 21.1 V G96 – Mt. Lemmon Survey MPS 401256
2009 03 19.36638 12 17 51.93 -02 50 04.4 21.6 V G96 – Mt. Lemmon Survey MPS 401256
2011 09 29.42727 02 54 31.56 +18 08 47.5 20.8 V 691 – Steward Observatory, Kitt Peak-Spacewatch MPS 400176
2011 09 29.44507 02 54 31.07 +18 08 46.6 20.8 V 691 – Steward Observatory, Kitt Peak-Spacewatch MPS 400176
2011 09 29.46284 02 54 30.67 +18 08 45.1 21.1 V 691 – Steward Observatory, Kitt Peak-Spacewatch MPS 400176
2011 10 17.31498 02 43 54.72 +17 31 19.1 20.8 V 691 – Steward Observatory, Kitt Peak-Spacewatch MPS 400176
2011 10 17.33276 02 43 53.82 +17 31 16.0 20.7 V 691 – Steward Observatory, Kitt Peak-Spacewatch MPS 400176
2011 10 17.35055 02 43 52.98 +17 31 12.4 20.3 V 691 – Steward Observatory, Kitt Peak-Spacewatch MPS 400176
2011 10 25.69267 02 37 04.13 +17 02 51.2 20.4 R D29 – Purple Mountain Observatory, XuYi Station MPS 398522
2011 10 25.71104 02 37 03.12 +17 02 46.6 20.7 R D29 – Purple Mountain Observatory, XuYi Station MPS 398522
2011 10 25.72702 02 37 02.27 +17 02 43.8 20.3 R D29 – Purple Mountain Observatory, XuYi Station MPS 398522
2011 10 26.93147 02 36 00.33 +16 58 10.8   621 – Bergisch Gladbach MPS 398522
2011 10 26.94379 02 35 59.65 +16 58 08.0   621 – Bergisch Gladbach MPS 398522
2011 10 26.95610 02 35 59.04 +16 58 05.2 20.3 V 621 – Bergisch Gladbach MPS 398522
2011 10 30.29443 02 33 04.75 +16 45 11.1 20.1 V 703 – Catalina Sky Survey MPS 398522
2011 10 30.30238 02 33 04.39 +16 45 11.5 19.7 V 703 – Catalina Sky Survey MPS 398522
2011 10 30.31052 02 33 03.96 +16 45 08.6 20.8 V 703 – Catalina Sky Survey MPS 398522
2011 10 30.31871 02 33 03.52 +16 45 05.4 20.0 V 703 – Catalina Sky Survey MPS 398522
2011 11 02.16910 02 30 34.39 +16 33 43.3 20.2 V 691 – Steward Observatory, Kitt Peak-Spacewatch MPS 398522
2011 11 02.18687 02 30 33.47 +16 33 39.2 19.9 V 691 – Steward Observatory, Kitt Peak-Spacewatch MPS 398522
2011 11 02.20462 02 30 32.50 +16 33 34.7 20.2 V 691 – Steward Observatory, Kitt Peak-Spacewatch MPS 398522
2011 11 15.26139 02 19 42.96 +15 40 48.9 20.0 V G96 – Mt. Lemmon Survey MPS 400176
2011 11 15.26828 02 19 42.63 +15 40 47.0 20.2 V G96 – Mt. Lemmon Survey MPS 400176
2011 11 15.27526 02 19 42.27 +15 40 45.1 20.3 V G96 – Mt. Lemmon Survey MPS 400176
2011 11 15.28220 02 19 41.98 +15 40 43.8 20.2 V G96 – Mt. Lemmon Survey MPS 400176
2011 11 16.22455 02 18 59.61 +15 37 04.4 19.6 V G96 – Mt. Lemmon Survey MPS 400176
2011 11 16.23155 02 18 59.25 +15 37 03.2 20.0 V G96 – Mt. Lemmon Survey MPS 400176
2011 11 16.23853 02 18 58.93 +15 37 01.5 20.4 V G96 – Mt. Lemmon Survey MPS 400176
2011 11 16.24545 02 18 58.60 +15 37 00.1 20.4 V G96 – Mt. Lemmon Survey MPS 400176
2011 11 24.26688 02 13 33.78 +15 08 07.4 20.3 V G96 – Mt. Lemmon Survey MPS 425956
2011 11 24.27264 02 13 33.56 +15 08 06.3 20.4 V G96 – Mt. Lemmon Survey MPS 425956
2011 11 24.27368 02 13 33.724 +15 08 06.60 21.0 g F51 – Pan-STARRS 1, Haleakala MPS 401256
2011 11 24.27845 02 13 33.34 +15 08 05.0 20.4 V G96 – Mt. Lemmon Survey MPS 425956
2011 11 24.28424 02 13 33.13 +15 08 04.0 20.3 V G96 – Mt. Lemmon Survey MPS 425956
2011 11 24.28531 02 13 33.290 +15 08 04.33 20.9 g F51 – Pan-STARRS 1, Haleakala MPS 401256
2011 11 24.29849 02 13 32.786 +15 08 01.90 20.9 r F51 – Pan-STARRS 1, Haleakala MPS 401256
2011 11 24.30972 02 13 32.364 +15 07 59.60 20.9 r F51 – Pan-STARRS 1, Haleakala MPS 401256
2011 12 02.24848 02 09 30.100 +14 44 51.14 21.1 i F51 – Pan-STARRS 1, Haleakala MPS 402535
2011 12 02.26131 02 09 29.773 +14 44 49.59 20.7 i F51 – Pan-STARRS 1, Haleakala MPS 402535
2011 12 02.27496 02 09 29.415 +14 44 47.74 20.6 r F51 – Pan-STARRS 1, Haleakala MPS 402535
2012 12 23.56619 08 19 32.799 +20 31 21.06 22.0 w F51 – Pan-STARRS 1, Haleakala MPS 448741
2012 12 23.58063 08 19 32.197 +20 31 22.53 22.0 w F51 – Pan-STARRS 1, Haleakala MPS 448742
2012 12 23.59504 08 19 31.638 +20 31 24.37 21.9 w F51 – Pan-STARRS 1, Haleakala MPS 448742
2012 12 23.60942 08 19 31.080 +20 31 26.17 21.8 w F51 – Pan-STARRS 1, Haleakala MPS 448742
2013 01 16.49825 08 00 25.406 +21 27 24.81 21.2 w F51 – Pan-STARRS 1, Haleakala MPS 452243
2013 01 16.52721 08 00 23.823 +21 27 28.91 21.3 w F51 – Pan-STARRS 1, Haleakala MPS 452243
2013 01 16.54171 08 00 23.041 +21 27 30.71 21.3 w F51 – Pan-STARRS 1, Haleakala MPS 452243
2013 02 10.40814 07 40 09.348 +22 13 36.20 21.9 w F51 – Pan-STARRS 1, Haleakala MPS 456272
2013 02 10.42349 07 40 08.713 +22 13 37.50 21.9 w F51 – Pan-STARRS 1, Haleakala MPS 456272
2013 02 10.45437 07 40 07.450 +22 13 39.87 21.6 w F51 – Pan-STARRS 1, Haleakala MPS 456272
2014 02 28.46660 11 47 56.792 +00 42 39.67 21.8 w F51 – Pan-STARRS 1, Haleakala MPS 505282
2014 02 28.47868 11 47 56.309 +00 42 42.47 21.6 w F51 – Pan-STARRS 1, Haleakala MPS 505282
2014 02 28.49076 11 47 55.785 +00 42 45.48 21.6 w F51 – Pan-STARRS 1, Haleakala MPS 505282
2015 05 15.48280 16 38 55.288 -23 52 23.36 20.6 w F51 – Pan-STARRS 1, Haleakala MPS 608431
2015 05 15.49375 16 38 54.764 -23 52 22.62 20.4 w F51 – Pan-STARRS 1, Haleakala MPS 608431
2015 05 15.50469 16 38 54.224 -23 52 21.74 20.5 w F51 – Pan-STARRS 1, Haleakala MPS 608431
2015 05 15.51561 16 38 53.704 -23 52 21.03 20.7 w F51 – Pan-STARRS 1, Haleakala MPS 608431
2015 05 18.48107 16 36 32.776 -23 48 29.11 20.5 w F51 – Pan-STARRS 1, Haleakala MPS 608431
2015 05 18.49220 16 36 32.211 -23 48 28.07 20.5 w F51 – Pan-STARRS 1, Haleakala MPS 608431
